Regional Weather Roundup
Issued by NWS Wakefield, VA

Home | Current Version | Previous Version | Graphics & Text | Print | Product List | Glossary On
Versions: 1 2 3 4 5 6 7 8 9 10 11 12 13 14 15 16 17 18 19 20 21 22 23 24 25 26 27 28 29 30 31 32 33 34 35 36 37 38 39 40 41 42 43 44 45 46 47 48 49 50
000
ASUS41 KAKQ 200915
RWRAKQ

REGIONAL WEATHER ROUNDUP
NATIONAL WEATHER SERVICE WAKEFIELD VA
400 AM EST SAT JAN 20 2018

Note: "fair" indicates few or no clouds below 12,000 feet with no
significant weather and/or obstructions to visibility. * = Denotes
station may not report precipitation (e.g., rain,snow,etc.),
thunder or fog.

VAZ042-051-052>054-056-201000-
NORTHERN VIRGINIA

CITY           SKY/WX    TMP DP  RH WIND       PRES   REMARKS
WASH NATIONAL  FAIR      30  21  69 SW5       30.00F
DULLES         FAIR      22  16  78 CALM      29.98F
FORT BELVOIR   FAIR      22  16  75 CALM        N/A
QUANTICO       NOT AVBL
FREDERICKSBRG* FAIR      25  19  78 CALM      30.00F
STAFFORD*      FAIR      25  16  69 CALM      30.03F
WARRENTON      FAIR      20  15  81 CALM      29.98F
CULPEPER*      FAIR      21  14  73 CALM      30.00F
MANASSAS*      FAIR      19  15  84 CALM      30.00F
LEESBURG*      FAIR      28  21  74 W3        29.98F
WINCHESTER     FAIR      34  10  37 SW6       30.00S
FRONT ROYAL*   FAIR      37   9  30 E5        29.97S
LURAY*         FAIR      36   9  32 SW8       29.99F
$$

VAZ048-049-060>072-079>083-201000-
CENTRAL AND SOUTH CENTRAL VIRGINIA

CITY           SKY/WX    TMP DP  RH WIND       PRES   REMARKS
RICHMOND       FAIR      37  12  35 W8        30.04S
CHESTERFIELD*  NOT AVBL
PETERSBURG*    FAIR      37  10  32 SW7       30.06F
HANOVER        FAIR      38   8  29 SW7       30.04S
TAPPAHANNOCK*  FAIR      32  16  51 S3        30.03S
QUINTON*       FAIR      35  13  40 SW3       30.04F
CHARLOTTSVILLE FAIR      40   7  25 VRB5      29.99F
GORDONSVILLE*  FAIR      29  15  55 W3        30.00F
ORANGE*        FAIR      30  14  51 CALM      30.00F
LOUISA*        FAIR      35   8  32 SW5       30.05F
BUMPASS*       FAIR      33   8  34 SW6       30.01F
FARMVILLE*     FAIR      28  14  56 SW3       30.05S
CREWE*         FAIR      36  12  37 CALM      30.05S
FORT PICKETT*  FAIR      32  14  47 SW5       30.06F
CHASE CITY*    FAIR      29  17  62 CALM      30.09F
CLARKSVILLE*   FAIR      30  19  64 SW6       30.09F
SOUTH HILL*    FAIR      30  21  69 SW6       30.14F
LAWRENCEVILLE* FAIR      33  19  58 W5        30.08F
EMPORIA*       FAIR      27  21  80 CALM      30.11F
$$

VAZ088>098-201000-
SOUTHEAST VIRGINIA

CITY           SKY/WX    TMP DP  RH WIND       PRES   REMARKS
NORFOLK        FAIR      33  22  63 SW12      30.07F WCI  24
VIRGINIA BEACH FAIR      33  20  58 SW9       30.08S
NORFOLK NAVAL  FAIR      40  21  46 SW9       30.08F
WEST POINT*    FAIR      32  15  49 CALM      30.06F
SALUDA*        FAIR      35  15  44 SW3       30.03F
NEWPORT NEWS   FAIR      36  21  54 W6        30.06F
LANGLEY AFB    FAIR      37  22  53 SW12      30.06F
FORT EUSTIS    FAIR      37  20  51 SW5       30.04F
WILLIAMSBURG*  FAIR      37  19  48 CALM      30.07S
HR EXEC AP*    FAIR      33  22  63 SW5       30.09F
FRANKLIN*      FAIR      35  22  59 S5        30.10F
US460-WAKEFLD  FAIR      34  21  59 SW6       30.07F
$$

VAZ020-022-025-037-045-201000-
WEST CENTRAL AND SOUTHWEST VIRGINIA

CITY           SKY/WX    TMP DP  RH WIND       PRES   REMARKS
STAUNTON*      FAIR      38   5  24 S8        30.02F
WAYNESBORO*    FAIR      41   2  20 SW9       30.02F
HOT SPRINGS VA FAIR      32   8  36 W24G35    29.99S WCI  19
LYNCHBURG      FAIR      36   4  26 SW7       30.06S
DANVILLE       FAIR      25  17  72 CALM      30.11F
SOUTH BOSTON*  FAIR      21  18  85 SW3       30.10F
MARTINSVILLE   FAIR      19  15  84 CALM      30.13S
ROANOKE        FAIR      38   5  25 W8G18     30.12S
BLACKSBURG     FAIR      28  10  47 W3        30.14S
DUBLIN*        FAIR      36  10  34 W10G20    30.13S
MARION*        FAIR      31   6  35 W18       30.16S WCI  19
HILLSVILLE*    FAIR      32   1  26 W6        30.09S
RICHLANDS*     PTSUNNY   32   9  37 W13       30.17R WCI  22
WISE*          CLOUDY    34  25  69 SW10      30.16S
ABINGDON*      FAIR      28  12  53 W3        30.20F
$$

MDZ021>025-VAZ099-100-201000-
SOUTHERN MARYLAND AND THE DELMARVA PENINSULA

CITY           SKY/WX    TMP DP  RH WIND       PRES   REMARKS
PATUXENT RIVER NOT AVBL
BAY BRIDGE APT FAIR      28  19  69 S3        29.99F
LEONARDTOWN    FAIR      34  14  44 SW6       30.02S
DOVER          FAIR      29  20  71 S5        29.98S
GEORGETOWN     FAIR      31  17  56 SW6       30.00F
EASTON         FAIR      32  17  53 CALM      30.03S
CAMBRIDGE        N/A     27  23  86 SE6       30.01S
SALISBURY      FAIR      30  17  58 SW5       30.01S
OCEAN CITY     FAIR      35  20  54 SW8       30.01F
WALLOPS ISLAND FAIR      39  15  37 SW7       30.03F
ACCOMACK*      FAIR      38  18  45 SW7       30.03F
$$

NCZ012>017-030>032-201000-
NORTH CENTRAL AND EASTERN NORTH CAROLINA

CITY           SKY/WX    TMP DP  RH WIND       PRES   REMARKS
ROANOKE RAPIDS FAIR      32  23  69 SW7       30.11S
RALEIGH        FAIR      32  23  69 W3        30.14S
ELIZABETH CITY FAIR      34  30  85 SW7       30.12S
AHOSKIE*       FAIR      32  21  64 CALM      30.12S
EDENTON*       NOT AVBL
CURRITUCK*     FAIR      34  26  72 SW5       30.12S
KILL DEVIL HLS FAIR      36  27  71 CALM      30.12S
MANTEO         FAIR      32  29  90 CALM      30.14S
CAPE HATTERAS  FAIR      44  30  57 W7        30.15F
TARBORO*       NOT AVBL
GOLDSBORO      FAIR      32  23  70 SW3       30.14S
WASHINGTON     FAIR      35  25  66 SW3       30.15F
GREENVILLE     FAIR      32  25  74 CALM      30.16S
NEW BERN       FAIR      36  25  64 SW6       30.17F
WILMINGTON     FAIR      35  26  69 SW6       30.19F
$$

VAZ048-201000-
ELSEWHERE

CITY           SKY/WX    TMP DP  RH WIND       PRES   REMARKS
HARRISBURG PA  FAIR      23  19  85 CALM      29.94F
BALTIMORE      FAIR      28  18  66 SW3       29.97F
ANNAPOLIS      FAIR      30  24  78 CALM      29.98F
ANDREWS AFB    FAIR      31  11  44 S3        29.97F
PHILADELPHIA   FAIR      32  19  58 SW8       29.97F
HENDERSON NC   FAIR      26  18  73 SW7       30.10F
GREENSBORO     FAIR      30  20  66 W6        30.11F
ROCKY MOUNT    NOT AVBL
$$

VAZ100-201000-
MARINE

STATION/POSITION TIME  TEMP    WIND        PRES    WAVE   SWELL
                       AIR SEA DIR/SP/G            HT/PER HT/PER
                 (UTC) (F)     (DEG/KT/KT) (MB)    (FT/S) (FT/S)
BRANDYWINE LGT   0848   36     240/ 11/ 13 1015.7F
CAPE MAY NJ      0848   34 33  240/  5/  6 1015.1F
LEWES DE         0848   36 34  240/  7/ 10 1015.4F
15NM E FENWICK I 0850   40 40  220/ 14/ 16 1016.2F   2/11   2/11
OCEAN-CITY-INLET 0848   35 35  250/  6/  7 1016.6F
WACHAPREAGUE VA  0848   32 34  230/  3/  3 1017.1F
THOMAS POINT MD  0900   37 32  190/  8/  8   N/A
GOOSES REEF MD   0900   35 32  230/  6/  6 1016.3    0
COVE POINT MD    0848   38     200/  6/  7 1016.5F
SOLOMONS ISLAND  0848   35 34  240/  4/  5 1015.8F
BISHOPS HEAD MD  0848   33 33  190/  7/  7 1016.7R
PINEY POINT MD   0848          290/  5/  5   N/A
POTOMAC MD       0900   36 33  330/  4/  6 1015.8    0
CAMBRIDGE MD     0848   31 32              1016.6F
LEWISETTA VA     0848   36 32  240/  5/  5 1016.4F
RAPPAHANNOCK LGT 0848          180/ 12/ 13 1017.9F
STINGRAY PT      0900   35 33  230/  6/  8 1020.0    0
YORK RVR RNG VA  0848   38     250/ 13/ 14 1018.0F
YORKTOWN VA      0848   40 35  230/ 10/ 12 1017.3F
DOMINION TERM VA 0848   37     230/  8/ 11 1018.5F
KIPTOPEKE VA     0848      35  210/  7/  8   N/A
CAPE HENRY VA    0848   39     220/  8/ 12   N/A
WILLOUBY STN VA  0848          230/ 15/ 15 1017.9F
S CRANEY ISL VA  0848   40     230/  8/ 12 1018.3F
CAPE HENRY BUOY  0900      40                N/A     2/11   2/11
1ST LANDING BUOY 0900   37 35  230/ 12/ 14 1018.1    0
CAPE CHARLES BUO 0851      38                N/A     2/11   2/11
64NM E OF VA BCH 0850   50 49  240/ 17/ 19 1019.3F   4/ 5   2/11
DUCK PIER NC     0848   40 39  230/ 11/ 14 1019.4F
44100 DUCK FRF   0845      43                N/A     2/10   2/11
44056 DUCK FRF   0900      39                N/A     2/11   2/11
OREGON INLET NC  0836   37 38  200/  6/  8 1020.4F
HATTERAS NC      0848   44 46  250/  8/ 12 1020.7F
DIAMOND SHLS NC  0850   58 70  260/ 17/ 23 1021.3F   4/ 5   2/ 9
CAPE LOOKOUT NC  0900          240/  8/ 10 1021.9F
$$



USA.gov is the U.S. government's official web portal to all federal, state and local government web resources and services.